Flight Track Log - Related Links

Times and Time Zones

All times are in EDT time to prevent confusion due to time zone crossing. See the SWA525 flight status page for this flight to view local times or setup timezone preferences in your user account.

Time Position Orientation Groundspeed Altitude Reporting Facility
EDT Latitude Longitude Course Direction KTS MPH feet Rate Location/Type
Wed 06:24:27 PM 30.0031 -90.2456 14° North 148 170 400  Level Houston Center
Wed 06:25:52 PM 30.0711 -90.2256 14° North 235 270 2,800 1,837 Climbing Houston Center
Wed 06:26:54 PM 30.0811 -90.1394 82° East 266 306 4,900 2,032 Climbing Houston Center
Wed 06:27:56 PM 30.0181 -90.0808 141° Southeast 295 339 7,000 2,274 Climbing Houston Center
Wed 06:28:58 PM 29.9558 -90.0181 139° Southeast 295 339 9,600 2,371 Climbing Houston Center
Wed 06:30:00 PM 29.8858 -89.9456 138° Southeast 326 375 11,900 2,419 Climbing Houston Center
Wed 06:31:02 PM 29.8097 -89.8683 139° Southeast 358 412 14,600 2,710 Climbing Houston Center
Wed 06:32:04 PM 29.7408 -89.7450 123° Southeast 391 450 17,500 2,419 Climbing Houston Center
Wed 06:33:06 PM 29.6889 -89.6311 118° Southeast 399 459 19,600 2,129 Climbing Houston Center
Wed 06:34:08 PM 29.6358 -89.5156 118° Southeast 407 468 21,900 1,935 Climbing Houston Center
Wed 06:35:10 PM 29.6000 -89.3875 108° East 431 496 23,600 1,645 Climbing Houston Center
Wed 06:36:12 PM 29.5792 -89.2517 100° East 434 499 25,300 1,645 Climbing Houston Center
Wed 06:37:14 PM 29.5533 -89.0836 100° East 446 513 27,000 1,597 Climbing Houston Center
Wed 06:38:16 PM 29.5311 -88.9417 100° East 453 521 28,600 1,306 Climbing Houston Center
Wed 06:39:18 PM 29.5017 -88.8008 103° East 456 525 29,700 1,161 Climbing Houston Center
Wed 06:40:20 PM 29.4689 -88.6575 105° East 465 535 31,000 1,220 Climbing Houston Center
Wed 06:41:21 PM 29.4364 -88.5125 104° East 469 540 32,200 1,220 Climbing Houston Center
Wed 06:42:23 PM 29.3889 -88.3494 108° East 471 542 33,500 1,210 Climbing Houston Center
Wed 06:43:25 PM 29.3175 -88.2189 122° Southeast 462 532 34,700 1,065 Climbing Houston Center
Wed 06:44:27 PM 29.2406 -88.1019 127° Southeast 461 531 35,700 774 Climbing Houston Center
Wed 06:45:29 PM 29.1600 -87.9786 127° Southeast 461 531 36,300 629 Climbing Houston Center
Wed 06:46:31 PM 29.0817 -87.8581 127° Southeast 473 544 37,000 339 Climbing Houston Center
Wed 06:47:33 PM 29.0022 -87.7353 126° Southeast 480 552 37,000  Level Houston Center
Wed 06:48:35 PM 28.9214 -87.6133 127° Southeast 481 554 37,000  Level Houston Center
Wed 06:49:37 PM 28.8408 -87.4911 127° Southeast 483 556 37,000  Level Houston Center
Wed 06:50:39 PM 28.7586 -87.3683 127° Southeast 487 560 37,000  Level Houston Center
Wed 06:51:16 PM 28.6931 -87.2706 127° Southeast 513 590 37,000  Level Jacksonville Center
Wed 06:52:16 PM 28.6136 -87.1489 127° Southeast 491 565 37,000  Level Jacksonville Center
Wed 06:53:16 PM 28.5322 -87.0250 127° Southeast 515 593 37,000  Level Jacksonville Center
Wed 06:54:16 PM 28.4503 -86.9058 128° Southeast 495 570 37,000  Level Jacksonville Center
Wed 06:55:16 PM 28.3686 -86.7847 127° Southeast 503 579 37,000  Level Jacksonville Center
Wed 06:56:16 PM 28.3017 -86.6525 120° Southeast 494 568 37,000  Level Jacksonville Center
Wed 06:57:16 PM 28.2558 -86.4978 109° East 486 559 37,000  Level Jacksonville Center
Wed 06:58:16 PM 28.2119 -86.3525 109° East 496 571 37,000  Level Jacksonville Center
Wed 06:59:16 PM 28.1697 -86.2097 109° East 493 567 37,000  Level Jacksonville Center
Wed 07:00:16 PM 28.1256 -86.0600 108° East 489 563 37,000  Level Jacksonville Center
Wed 07:01:16 PM 28.0811 -85.9106 109° East 489 563 37,000  Level Jacksonville Center
Wed 07:02:16 PM 28.0386 -85.7611 108° East 489 563 37,000 -188 Level Jacksonville Center
Wed 07:04:28 PM 27.9492 -85.4600 109° East 484 557 36,400 -719 Descending Miami Center
Wed 07:05:28 PM 27.9014 -85.3156 110° East 484 557 34,700 -1,450 Descending Miami Center
Wed 07:06:28 PM 27.8722 -85.1728 103° East 471 542 33,500 -1,300 Descending Miami Center
Wed 07:07:28 PM 27.8492 -85.0281 100° East 465 535 32,100 -1,350 Descending Miami Center
Wed 07:08:28 PM 27.8344 -84.8839 97° East 460 529 30,800 -1,200 Descending Miami Center
Wed 07:09:28 PM 27.8072 -84.7367 102° East 465 535 29,700 -1,050 Descending Miami Center
Wed 07:10:28 PM 27.7839 -84.5922 100° East 471 542 28,700 -950 Descending Miami Center
Wed 07:11:28 PM 27.7644 -84.4456 98° East 471 542 27,800 -958 Descending Miami Center
Wed 07:12:27 PM 27.7428 -84.3014 100° East 471 542 26,800 -1,008 Descending Miami Center
Wed 07:13:27 PM 27.7150 -84.1542 102° East 471 542 25,800 -942 Descending Miami Center
Wed 07:14:28 PM 27.7014 -84.0103 96° East 471 542 24,900 -893 Descending Miami Center
Wed 07:15:28 PM 27.6833 -83.8642 98° East 471 542 24,000 -950 Descending Miami Center
Wed 07:16:28 PM 27.7031 -83.7178 81° East 462 532 23,000 -500 Descending Miami Center
Wed 07:17:28 PM 27.7244 -83.5761 80° East 456 525 23,000 -350 Level Miami Center
Wed 07:18:28 PM 27.7350 -83.4361 85° East 456 525 22,300 -850 Descending Miami Center
Wed 07:19:28 PM 27.7475 -83.2961 84° East 456 525 21,300 -1,000 Descending Miami Center
Wed 07:20:28 PM 27.7661 -83.1589 81° East 450 518 20,300 -1,000 Descending Miami Center
Wed 07:21:28 PM 27.7761 -83.0258 85° East 439 505 19,300 -950 Descending Miami Center
Wed 07:22:28 PM 27.7900 -82.8906 83° East 433 498 18,400 -850 Descending Miami Center
Wed 07:23:28 PM 27.8039 -82.7575 83° East 433 498 17,600 -900 Descending Miami Center
Wed 07:24:28 PM 27.8178 -82.6269 83° East 421 484 16,600 -1,000 Descending Miami Center
Wed 07:25:28 PM 27.8372 -82.5011 80° East 416 479 15,600 -800 Descending Miami Center
Wed 07:26:28 PM 27.8731 -82.3808 71° East 410 472 15,000 -303 Descending Miami Center
Wed 07:27:27 PM 27.9111 -82.2628 70° East 396 456 15,000 -321 Level Miami Center
Wed 07:29:35 PM 28.0000 -82.0000 69° East 393 452 14,000 -638 Descending Orlando TRACON
Wed 07:30:35 PM 28.0500 -81.8833 64° Northeast 401 461 13,000 -793 Descending Orlando TRACON
Wed 07:31:36 PM 28.1000 -81.7833 60° Northeast 396 456 12,400 -810 Descending Orlando TRACON
Wed 07:32:41 PM 28.1667 -81.6667 57° Northeast 394 453 11,300 -1,000 Descending Orlando TRACON
Wed 07:33:42 PM 28.2333 -81.5667 53° Northeast 386 444 10,300 -645 Descending Orlando TRACON
Wed 07:34:42 PM 28.2833 -81.4833 56° Northeast 313 360 10,000 -650 Descending Orlando TRACON
Wed 07:35:42 PM 28.3500 -81.4333 33° Northeast 287 330 9,000 -800 Descending Orlando TRACON
Wed 07:36:42 PM 28.4167 -81.4167 12° North 248 285 8,400 -950 Descending Orlando TRACON
Wed 07:37:42 PM 28.4833 -81.4167 360° North 236 272 7,100 -1,400 Descending Orlando TRACON
Wed 07:38:42 PM 28.5500 -81.4167 360° North 231 266 5,600 -1,526 Descending Orlando TRACON
Wed 07:39:36 PM 28.6000 -81.4000 16° North 237 273 4,200 -1,421 Descending Orlando TRACON
Wed 07:40:36 PM 28.5833 -81.3500 111° Southeast 222 255 2,900 -950 Descending Orlando TRACON
Wed 07:41:36 PM 28.5333 -81.3333 164° South 164 189 2,300 -950 Descending Orlando TRACON
Wed 07:42:36 PM 28.5000 -81.3333 180° South 145 167 1,000 -1,300 Descending Orlando TRACON

Login

Don't have an account? Register now (free) for customized features, flight alerts, and more!